GLD1974 SBCY-SBPC

Flight info

Callsign GLD1974
Flight time 1h 47m
Altitude 39000
Route KOKLI UZ8 TORAB UZ82 ARUSA DCT KOMTO/N0368F230 Z55 EVTOB
Aircraft A319/M-SDE3FGHIRWY/LB1

Departure

Time 2026-05-06 09:48
Airport Várzea Grande–Marechal Rondon International Airport (SBCY)

Arrival

Time 2026-05-06 11:36
Airport Poços de Caldas - Embaixador Walther Moreira Salles Airport (SBPC)
Time Latitude Longitude Altitude Speed Heading
2026-05-06 09:35 -15.65086 -56.11964 614 ft 0 kts 243°
2026-05-06 09:41 -15.65083 -56.11957 613 ft 2 kts 243°
2026-05-06 09:41 -15.65075 -56.11942 610 ft 2 kts 243°
2026-05-06 09:41 -15.65068 -56.11927 617 ft 2 kts 196°
2026-05-06 09:42 -15.65052 -56.11929 613 ft 2 kts 156°
2026-05-06 09:42 -15.65040 -56.11935 618 ft 0 kts 154°
2026-05-06 09:44 -15.65041 -56.11935 618 ft 0 kts 154°
2026-05-06 09:44 -15.65043 -56.11933 618 ft 3 kts 154°
2026-05-06 09:44 -15.65105 -56.11901 605 ft 15 kts 153°
2026-05-06 09:44 -15.65203 -56.11848 610 ft 17 kts 152°
2026-05-06 09:45 -15.65302 -56.11796 612 ft 13 kts 153°
2026-05-06 09:45 -15.65381 -56.11754 611 ft 14 kts 153°
2026-05-06 09:45 -15.65466 -56.11710 610 ft 10 kts 154°
2026-05-06 09:45 -15.65535 -56.11672 604 ft 12 kts 152°
2026-05-06 09:46 -15.65624 -56.11625 605 ft 16 kts 153°
2026-05-06 09:46 -15.65731 -56.11568 606 ft 18 kts 153°
2026-05-06 09:46 -15.65849 -56.11505 610 ft 20 kts 153°
2026-05-06 09:46 -15.65961 -56.11445 605 ft 17 kts 153°
2026-05-06 09:47 -15.66074 -56.11385 608 ft 19 kts 153°
2026-05-06 09:47 -15.66184 -56.11328 605 ft 17 kts 154°
2026-05-06 09:47 -15.66242 -56.11237 604 ft 17 kts 63°
2026-05-06 09:47 -15.66164 -56.11207 600 ft 3 kts 333°
2026-05-06 09:48 -15.66162 -56.11208 600 ft 2 kts 333°
2026-05-06 09:48 -15.66009 -56.11290 600 ft 68 kts 333°
2026-05-06 09:48 -15.65326 -56.11654 637 ft 144 kts 332°
2026-05-06 09:48 -15.64395 -56.12144 1269 ft 154 kts 333°
2026-05-06 09:49 -15.63446 -56.12647 2067 ft 152 kts 338°
2026-05-06 09:49 -15.62433 -56.12979 2673 ft 160 kts
2026-05-06 09:49 -15.61367 -56.12560 3124 ft 178 kts 40°
2026-05-06 09:49 -15.60667 -56.11428 3517 ft 204 kts 76°
2026-05-06 09:50 -15.60851 -56.09874 3984 ft 236 kts 107°
2026-05-06 09:50 -15.61487 -56.08213 4693 ft 257 kts 110°
2026-05-06 09:50 -15.62211 -56.06478 5697 ft 265 kts 111°
2026-05-06 09:50 -15.62969 -56.04701 6741 ft 272 kts 112°
2026-05-06 09:51 -15.63741 -56.02883 7783 ft 278 kts 112°
2026-05-06 09:51 -15.64516 -56.01025 8860 ft 283 kts 112°
2026-05-06 09:51 -15.65300 -55.99122 9953 ft 289 kts 112°
2026-05-06 09:51 -15.66107 -55.97149 10609 ft 309 kts 112°
2026-05-06 09:52 -15.66966 -55.95041 11311 ft 322 kts 112°
2026-05-06 09:52 -15.67845 -55.92879 12178 ft 328 kts 112°
2026-05-06 09:52 -15.68729 -55.90704 13037 ft 334 kts 112°
2026-05-06 09:52 -15.69637 -55.88466 13864 ft 339 kts 112°
2026-05-06 09:53 -15.70558 -55.86197 14599 ft 343 kts 112°
2026-05-06 09:53 -15.71491 -55.83902 15362 ft 346 kts 112°
2026-05-06 09:53 -15.72432 -55.81594 16120 ft 349 kts 112°
2026-05-06 09:53 -15.73380 -55.79260 16870 ft 352 kts 113°
2026-05-06 09:54 -15.74333 -55.76908 17631 ft 355 kts 113°
2026-05-06 09:54 -15.75291 -55.74536 18377 ft 358 kts 113°
2026-05-06 09:54 -15.76257 -55.72136 19001 ft 361 kts 113°
2026-05-06 09:54 -15.77233 -55.69719 19626 ft 365 kts 114°
2026-05-06 09:55 -15.78221 -55.67279 20261 ft 369 kts 114°
2026-05-06 09:55 -15.79221 -55.64809 20891 ft 372 kts 114°
2026-05-06 09:55 -15.80231 -55.62318 21514 ft 377 kts 114°
2026-05-06 09:55 -15.81252 -55.59801 22140 ft 381 kts 114°
2026-05-06 09:56 -15.82283 -55.57251 22776 ft 385 kts 114°
2026-05-06 09:56 -15.83322 -55.54675 23394 ft 389 kts 114°
2026-05-06 09:56 -15.84374 -55.52069 23960 ft 393 kts 114°
2026-05-06 09:56 -15.85435 -55.49441 24512 ft 396 kts 114°
2026-05-06 09:57 -15.86503 -55.46794 25072 ft 399 kts 114°
2026-05-06 09:57 -15.87577 -55.44120 25593 ft 403 kts 114°
2026-05-06 09:57 -15.88579 -55.41381 26124 ft 406 kts 111°
2026-05-06 09:57 -15.89498 -55.38596 26642 ft 410 kts 110°
2026-05-06 09:58 -15.90364 -55.35805 27151 ft 413 kts 110°
2026-05-06 09:58 -15.91231 -55.32953 27647 ft 416 kts 110°
2026-05-06 09:58 -15.92114 -55.30080 28117 ft 419 kts 110°
2026-05-06 09:58 -15.93018 -55.27189 28591 ft 422 kts 110°
2026-05-06 09:59 -15.93942 -55.24283 29076 ft 425 kts 111°
2026-05-06 09:59 -15.94883 -55.21359 29543 ft 428 kts 111°
2026-05-06 09:59 -15.95853 -55.18420 30011 ft 431 kts 114°
2026-05-06 09:59 -15.97152 -55.15624 30425 ft 430 kts 123°
2026-05-06 10:00 -15.98877 -55.13091 30804 ft 430 kts 133°
2026-05-06 10:00 -16.00985 -55.10891 31178 ft 430 kts 142°
2026-05-06 10:00 -16.03335 -55.08978 31690 ft 428 kts 144°
2026-05-06 10:00 -16.05683 -55.07075 32251 ft 428 kts 144°
2026-05-06 10:01 -16.08019 -55.05168 32814 ft 427 kts 144°
2026-05-06 10:01 -16.10351 -55.03259 33380 ft 426 kts 145°
2026-05-06 10:01 -16.12681 -55.01351 33932 ft 426 kts 145°
2026-05-06 10:01 -16.15010 -54.99452 34427 ft 425 kts 145°
2026-05-06 10:02 -16.17339 -54.97557 34911 ft 424 kts 145°
2026-05-06 10:02 -16.19665 -54.95663 35349 ft 424 kts 145°
2026-05-06 10:02 -16.21989 -54.93769 35764 ft 425 kts 145°
2026-05-06 10:02 -16.24319 -54.91870 36186 ft 425 kts 145°
2026-05-06 10:03 -16.26647 -54.89971 36601 ft 426 kts 145°
2026-05-06 10:03 -16.28984 -54.88063 37006 ft 427 kts 145°
2026-05-06 10:03 -16.31320 -54.86154 37397 ft 427 kts 145°
2026-05-06 10:03 -16.33657 -54.84241 37798 ft 428 kts 145°
2026-05-06 10:04 -16.35995 -54.82326 38189 ft 428 kts 146°
2026-05-06 10:04 -16.38339 -54.80411 38568 ft 429 kts 146°
2026-05-06 10:04 -16.40691 -54.78488 38906 ft 429 kts 146°
2026-05-06 10:04 -16.43012 -54.76589 39038 ft 431 kts 146°
2026-05-06 10:05 -16.47739 -54.72722 39073 ft 432 kts 146°
2026-05-06 10:05 -16.52464 -54.68853 39073 ft 432 kts 146°
2026-05-06 10:06 -16.57184 -54.64989 39079 ft 431 kts 146°
2026-05-06 10:06 -16.61811 -54.60995 39079 ft 433 kts 142°
2026-05-06 10:07 -16.66264 -54.56748 39087 ft 434 kts 141°
2026-05-06 10:07 -16.70701 -54.52470 39087 ft 434 kts 141°
2026-05-06 10:08 -16.75187 -54.48243 39085 ft 435 kts 142°
2026-05-06 10:08 -16.79697 -54.44043 39098 ft 435 kts 142°
2026-05-06 10:09 -16.84205 -54.39831 39101 ft 435 kts 142°
2026-05-06 10:09 -16.88701 -54.35609 39116 ft 435 kts 142°
2026-05-06 10:10 -16.93164 -54.31412 39115 ft 435 kts 142°
2026-05-06 10:10 -16.97660 -54.27186 39117 ft 435 kts 142°
2026-05-06 10:11 -17.02152 -54.22960 39120 ft 434 kts 142°
2026-05-06 10:11 -17.06648 -54.18725 39120 ft 434 kts 142°
2026-05-06 10:12 -17.11137 -54.14498 39129 ft 434 kts 142°
2026-05-06 10:12 -17.15629 -54.10267 39133 ft 435 kts 142°
2026-05-06 10:13 -17.20092 -54.06060 39130 ft 435 kts 142°
2026-05-06 10:13 -17.24584 -54.01813 39135 ft 435 kts 142°
2026-05-06 10:14 -17.29074 -53.97575 39135 ft 434 kts 142°
2026-05-06 10:14 -17.33550 -53.93330 39142 ft 435 kts 142°
2026-05-06 10:15 -17.38004 -53.89042 39144 ft 435 kts 142°
2026-05-06 10:15 -17.42450 -53.84746 39142 ft 435 kts 142°
2026-05-06 10:16 -17.46869 -53.80482 39141 ft 435 kts 142°
2026-05-06 10:16 -17.51340 -53.76162 39139 ft 434 kts 142°
2026-05-06 10:17 -17.55791 -53.71878 39145 ft 434 kts 142°
2026-05-06 10:17 -17.60209 -53.67624 39149 ft 434 kts 142°
2026-05-06 10:18 -17.64650 -53.63343 39139 ft 433 kts 142°
2026-05-06 10:18 -17.69089 -53.59056 39141 ft 434 kts 142°
2026-05-06 10:19 -17.73526 -53.54763 39148 ft 434 kts 142°
2026-05-06 10:19 -17.77957 -53.50474 39146 ft 433 kts 142°
2026-05-06 10:20 -17.82388 -53.46188 39146 ft 433 kts 142°
2026-05-06 10:20 -17.86813 -53.41899 39151 ft 433 kts 142°
2026-05-06 10:21 -17.91233 -53.37612 39148 ft 432 kts 142°
2026-05-06 10:21 -17.95655 -53.33330 39154 ft 432 kts 142°
2026-05-06 10:22 -18.00075 -53.29048 39153 ft 432 kts 142°
2026-05-06 10:22 -18.04463 -53.24780 39158 ft 432 kts 142°
2026-05-06 10:23 -18.08873 -53.20494 39158 ft 432 kts 142°
2026-05-06 10:23 -18.13280 -53.16202 39157 ft 432 kts 142°
2026-05-06 10:24 -18.17685 -53.11913 39162 ft 431 kts 142°
2026-05-06 10:24 -18.22088 -53.07629 39160 ft 431 kts 142°
2026-05-06 10:25 -18.25746 -53.04066 39162 ft 431 kts 142°
2026-05-06 10:25 -18.30143 -52.99769 39173 ft 431 kts 142°
2026-05-06 10:26 -18.34535 -52.95478 39175 ft 431 kts 142°
2026-05-06 10:26 -18.38930 -52.91191 39175 ft 430 kts 142°
2026-05-06 10:27 -18.43314 -52.86905 39173 ft 430 kts 142°
2026-05-06 10:27 -18.47695 -52.82611 39171 ft 430 kts 142°
2026-05-06 10:28 -18.52080 -52.78317 39177 ft 430 kts 142°
2026-05-06 10:28 -18.56461 -52.74030 39178 ft 429 kts 143°
2026-05-06 10:29 -18.60832 -52.69751 39178 ft 429 kts 143°
2026-05-06 10:29 -18.65201 -52.65470 39178 ft 429 kts 143°
2026-05-06 10:30 -18.69563 -52.61187 39180 ft 428 kts 143°
2026-05-06 10:30 -18.73896 -52.56931 39180 ft 428 kts 143°
2026-05-06 10:31 -18.78251 -52.52648 39177 ft 428 kts 143°
2026-05-06 10:31 -18.82599 -52.48363 39176 ft 428 kts 143°
2026-05-06 10:32 -18.86944 -52.44076 39175 ft 427 kts 143°
2026-05-06 10:32 -18.91285 -52.39793 39174 ft 427 kts 143°
2026-05-06 10:33 -18.95621 -52.35513 39177 ft 426 kts 143°
2026-05-06 10:33 -18.99947 -52.31223 39169 ft 426 kts 143°
2026-05-06 10:34 -19.04268 -52.26938 39169 ft 426 kts 143°
2026-05-06 10:34 -19.08588 -52.22654 39163 ft 425 kts 143°
2026-05-06 10:35 -19.12896 -52.18372 39161 ft 425 kts 143°
2026-05-06 10:35 -19.17205 -52.14091 39166 ft 425 kts 143°
2026-05-06 10:36 -19.21494 -52.09834 39169 ft 424 kts 143°
2026-05-06 10:36 -19.25791 -52.05561 39164 ft 424 kts 143°
2026-05-06 10:37 -19.30082 -52.01283 39165 ft 423 kts 143°
2026-05-06 10:37 -19.34367 -51.97008 39164 ft 423 kts 143°
2026-05-06 10:38 -19.38648 -51.92740 39177 ft 422 kts 143°
2026-05-06 10:38 -19.42918 -51.88480 39174 ft 421 kts 143°
2026-05-06 10:39 -19.47155 -51.84258 39166 ft 420 kts 143°
2026-05-06 10:39 -19.51409 -51.80015 39156 ft 420 kts 143°
2026-05-06 10:40 -19.55654 -51.75758 39159 ft 420 kts 143°
2026-05-06 10:40 -19.59896 -51.71503 39171 ft 419 kts 144°
2026-05-06 10:41 -19.64126 -51.67242 39165 ft 421 kts 141°
2026-05-06 10:41 -19.67554 -51.62088 39160 ft 438 kts 122°
2026-05-06 10:42 -19.69939 -51.56099 39158 ft 440 kts 119°
2026-05-06 10:42 -19.72306 -51.50093 39155 ft 440 kts 120°
2026-05-06 10:43 -19.74676 -51.44105 39161 ft 440 kts 120°
2026-05-06 10:44 -19.78227 -51.35120 39168 ft 440 kts 120°
2026-05-06 10:44 -19.80588 -51.29121 39154 ft 440 kts 120°
2026-05-06 10:45 -19.82943 -51.23108 39151 ft 441 kts 120°
2026-05-06 10:45 -19.85284 -51.17131 39153 ft 441 kts 120°
2026-05-06 10:46 -19.87650 -51.11126 39153 ft 441 kts 120°
2026-05-06 10:46 -19.90015 -51.05117 39152 ft 441 kts 120°
2026-05-06 10:47 -19.92366 -50.99104 39152 ft 441 kts 119°
2026-05-06 10:47 -19.94719 -50.93082 39155 ft 441 kts 120°
2026-05-06 10:48 -19.97071 -50.87066 39163 ft 441 kts 120°
2026-05-06 10:48 -19.99414 -50.81045 39164 ft 441 kts 120°
2026-05-06 10:49 -20.01756 -50.75018 39159 ft 440 kts 120°
2026-05-06 10:49 -20.04108 -50.69006 39160 ft 440 kts 120°
2026-05-06 10:50 -20.06430 -50.63026 39169 ft 441 kts 120°
2026-05-06 10:50 -20.08763 -50.56996 39168 ft 440 kts 120°
2026-05-06 10:51 -20.11101 -50.50977 39170 ft 440 kts 120°
2026-05-06 10:51 -20.13433 -50.44960 39169 ft 440 kts 120°
2026-05-06 10:52 -20.15765 -50.38946 39175 ft 439 kts 120°
2026-05-06 10:52 -20.18089 -50.32936 39178 ft 439 kts 120°
2026-05-06 10:53 -20.20412 -50.26932 39175 ft 438 kts 120°
2026-05-06 10:53 -20.22735 -50.20930 39175 ft 438 kts 120°
2026-05-06 10:54 -20.25046 -50.14932 39181 ft 438 kts 120°
2026-05-06 10:54 -20.27352 -50.08925 39171 ft 438 kts 120°
2026-05-06 10:55 -20.29654 -50.02920 39167 ft 438 kts 120°
2026-05-06 10:55 -20.31956 -49.96911 39181 ft 438 kts 120°
2026-05-06 10:56 -20.34250 -49.90943 39181 ft 438 kts 120°
2026-05-06 10:56 -20.36548 -49.84940 39185 ft 437 kts 120°
2026-05-06 10:57 -20.38844 -49.78946 39197 ft 437 kts 120°
2026-05-06 10:57 -20.41139 -49.72945 39189 ft 437 kts 121°
2026-05-06 10:58 -20.43428 -49.66949 39190 ft 436 kts 121°
2026-05-06 10:58 -20.45719 -49.60956 39189 ft 436 kts 121°
2026-05-06 10:59 -20.48001 -49.54960 39189 ft 436 kts 121°
2026-05-06 10:59 -20.50276 -49.48959 39199 ft 436 kts 121°
2026-05-06 11:00 -20.52544 -49.42964 39196 ft 436 kts 121°
2026-05-06 11:00 -20.54816 -49.36966 39202 ft 435 kts 121°
2026-05-06 11:01 -20.57077 -49.31017 39201 ft 435 kts 121°
2026-05-06 11:01 -20.59348 -49.25028 39203 ft 435 kts 121°
2026-05-06 11:02 -20.61611 -49.19034 39200 ft 435 kts 121°
2026-05-06 11:02 -20.63868 -49.13044 39198 ft 435 kts 121°
2026-05-06 11:03 -20.66122 -49.07046 39208 ft 435 kts 121°
2026-05-06 11:03 -20.68380 -49.01057 39213 ft 435 kts 121°
2026-05-06 11:04 -20.70627 -48.95101 39211 ft 434 kts 122°
2026-05-06 11:04 -20.72878 -48.89119 39212 ft 434 kts 121°
2026-05-06 11:05 -20.75122 -48.83132 39211 ft 434 kts 121°
2026-05-06 11:05 -20.77360 -48.77151 39207 ft 433 kts 121°
2026-05-06 11:06 -20.79597 -48.71175 39203 ft 433 kts 121°
2026-05-06 11:06 -20.81837 -48.65187 39207 ft 433 kts 121°
2026-05-06 11:07 -20.84076 -48.59211 39216 ft 433 kts 122°
2026-05-06 11:07 -20.86304 -48.53235 39213 ft 433 kts 122°
2026-05-06 11:08 -20.88522 -48.47255 39207 ft 433 kts 122°
2026-05-06 11:08 -20.90746 -48.41273 39215 ft 433 kts 122°
2026-05-06 11:09 -20.92967 -48.35296 39219 ft 432 kts 122°
2026-05-06 11:09 -20.95193 -48.29329 39217 ft 432 kts 122°
2026-05-06 11:10 -20.97410 -48.23360 39228 ft 432 kts 122°
2026-05-06 11:10 -20.98518 -48.20370 38875 ft 434 kts 122°
2026-05-06 11:10 -20.99646 -48.17334 37533 ft 442 kts 122°
2026-05-06 11:10 -21.00757 -48.14314 37118 ft 426 kts 122°
2026-05-06 11:11 -21.01815 -48.11398 36803 ft 418 kts 122°
2026-05-06 11:11 -21.02516 -48.09483 36473 ft 416 kts 122°
2026-05-06 11:11 -21.03574 -48.06608 35963 ft 415 kts 122°
2026-05-06 11:11 -21.04633 -48.03744 35439 ft 413 kts 122°
2026-05-06 11:12 -21.06036 -47.99954 34721 ft 412 kts 122°
2026-05-06 11:12 -21.06749 -47.98028 34356 ft 412 kts 122°
2026-05-06 11:12 -21.07802 -47.95184 33778 ft 410 kts 122°
2026-05-06 11:12 -21.08845 -47.92351 33248 ft 408 kts 121°
2026-05-06 11:13 -21.09880 -47.89534 32727 ft 405 kts 121°
2026-05-06 11:13 -21.10908 -47.86735 32203 ft 403 kts 121°
2026-05-06 11:13 -21.11921 -47.83979 31698 ft 401 kts 120°
2026-05-06 11:13 -21.12936 -47.81206 31213 ft 399 kts 120°
2026-05-06 11:14 -21.13947 -47.78452 30795 ft 395 kts 120°
2026-05-06 11:14 -21.14970 -47.75738 30362 ft 391 kts 121°
2026-05-06 11:14 -21.16052 -47.73076 29913 ft 387 kts 122°
2026-05-06 11:14 -21.17158 -47.70470 29501 ft 382 kts 122°
2026-05-06 11:15 -21.18262 -47.67905 29107 ft 377 kts 122°
2026-05-06 11:15 -21.19350 -47.65369 28725 ft 372 kts 122°
2026-05-06 11:15 -21.20413 -47.62864 28348 ft 367 kts 121°
2026-05-06 11:15 -21.21457 -47.60385 27960 ft 363 kts 121°
2026-05-06 11:16 -21.22480 -47.57934 27578 ft 358 kts 120°
2026-05-06 11:16 -21.23491 -47.55506 27193 ft 355 kts 120°
2026-05-06 11:16 -21.24494 -47.53098 26803 ft 353 kts 120°
2026-05-06 11:16 -21.25491 -47.50705 26412 ft 351 kts 119°
2026-05-06 11:17 -21.26483 -47.48320 26006 ft 349 kts 119°
2026-05-06 11:17 -21.27469 -47.45945 25602 ft 348 kts 118°
2026-05-06 11:17 -21.28453 -47.43580 25191 ft 347 kts 118°
2026-05-06 11:17 -21.29436 -47.41226 24762 ft 345 kts 118°
2026-05-06 11:18 -21.30418 -47.38875 24343 ft 344 kts 118°
2026-05-06 11:18 -21.31393 -47.36532 23910 ft 344 kts 117°
2026-05-06 11:18 -21.32364 -47.34192 23434 ft 343 kts 117°
2026-05-06 11:18 -21.33327 -47.31861 23009 ft 340 kts 116°
2026-05-06 11:19 -21.34269 -47.29579 22606 ft 338 kts 116°
2026-05-06 11:19 -21.35218 -47.27285 22196 ft 336 kts 116°
2026-05-06 11:19 -21.36134 -47.24989 21786 ft 334 kts 112°
2026-05-06 11:19 -21.36877 -47.22632 21384 ft 333 kts 111°
2026-05-06 11:20 -21.37614 -47.20281 20993 ft 332 kts 111°
2026-05-06 11:20 -21.38352 -47.17942 20599 ft 330 kts 111°
2026-05-06 11:20 -21.39089 -47.15611 20202 ft 329 kts 111°
2026-05-06 11:20 -21.39824 -47.13289 19815 ft 328 kts 111°
2026-05-06 11:21 -21.40553 -47.10981 19430 ft 327 kts 111°
2026-05-06 11:21 -21.41279 -47.08676 19036 ft 326 kts 110°
2026-05-06 11:21 -21.42005 -47.06376 18650 ft 325 kts 110°
2026-05-06 11:21 -21.42727 -47.04082 18233 ft 324 kts 110°
2026-05-06 11:22 -21.43446 -47.01795 17841 ft 321 kts 110°
2026-05-06 11:22 -21.44156 -46.99531 17460 ft 319 kts 110°
2026-05-06 11:22 -21.44861 -46.97275 17099 ft 317 kts 110°
2026-05-06 11:22 -21.45560 -46.95043 16724 ft 315 kts 109°
2026-05-06 11:23 -21.46255 -46.92821 16357 ft 313 kts 109°
2026-05-06 11:23 -21.46937 -46.90637 16009 ft 311 kts 109°
2026-05-06 11:23 -21.47622 -46.88440 15658 ft 310 kts 109°
2026-05-06 11:23 -21.48308 -46.86249 15298 ft 309 kts 109°
2026-05-06 11:24 -21.48990 -46.84068 14943 ft 307 kts 109°
2026-05-06 11:24 -21.49669 -46.81896 14589 ft 306 kts 108°
2026-05-06 11:24 -21.50343 -46.79733 14241 ft 305 kts 108°
2026-05-06 11:24 -21.51156 -46.77643 13896 ft 303 kts 123°
2026-05-06 11:25 -21.52735 -46.76193 13618 ft 302 kts 154°
2026-05-06 11:25 -21.54758 -46.75673 13347 ft 299 kts 173°
2026-05-06 11:25 -21.56833 -46.75629 13040 ft 297 kts 180°
2026-05-06 11:25 -21.58887 -46.75714 12736 ft 294 kts 180°
2026-05-06 11:26 -21.60922 -46.75771 12429 ft 291 kts 178°
2026-05-06 11:26 -21.62936 -46.75749 12128 ft 287 kts 176°
2026-05-06 11:26 -21.64921 -46.75652 11825 ft 285 kts 174°
2026-05-06 11:26 -21.66888 -46.75507 11522 ft 282 kts 173°
2026-05-06 11:27 -21.68837 -46.75339 11215 ft 280 kts 172°
2026-05-06 11:27 -21.70759 -46.75161 10897 ft 272 kts 172°
2026-05-06 11:27 -21.72607 -46.74988 10602 ft 261 kts 172°
2026-05-06 11:27 -21.74383 -46.74821 10311 ft 251 kts 172°
2026-05-06 11:28 -21.76085 -46.74661 10013 ft 240 kts 172°
2026-05-06 11:28 -21.77736 -46.74503 9612 ft 236 kts 172°
2026-05-06 11:28 -21.79347 -46.74294 9188 ft 230 kts 161°
2026-05-06 11:28 -21.80718 -46.73519 8790 ft 220 kts 135°
2026-05-06 11:29 -21.81771 -46.72353 8409 ft 216 kts 130°
2026-05-06 11:29 -21.82812 -46.71178 8023 ft 220 kts 130°
2026-05-06 11:29 -21.83859 -46.70003 7633 ft 219 kts 131°
2026-05-06 11:29 -21.84905 -46.68833 7257 ft 216 kts 130°
2026-05-06 11:30 -21.85950 -46.67664 6873 ft 215 kts 130°
2026-05-06 11:30 -21.86926 -46.66464 6491 ft 211 kts 117°
2026-05-06 11:30 -21.87147 -46.64974 6136 ft 202 kts 81°
2026-05-06 11:30 -21.86776 -46.63592 5990 ft 179 kts 70°
2026-05-06 11:31 -21.86312 -46.62437 5752 ft 162 kts 64°
2026-05-06 11:31 -21.85822 -46.61427 5553 ft 141 kts 65°
2026-05-06 11:31 -21.85441 -46.60516 5454 ft 129 kts 66°
2026-05-06 11:31 -21.85088 -46.59653 5386 ft 124 kts 66°
2026-05-06 11:32 -21.84977 -46.58741 5300 ft 126 kts 98°
2026-05-06 11:32 -21.85424 -46.57940 5167 ft 131 kts 136°
2026-05-06 11:32 -21.86283 -46.57587 5094 ft 134 kts 162°
2026-05-06 11:32 -21.87210 -46.57458 4972 ft 138 kts 178°
2026-05-06 11:33 -21.88026 -46.58012 4822 ft 144 kts 231°
2026-05-06 11:33 -21.88564 -46.58918 4926 ft 144 kts 244°
2026-05-06 11:33 -21.88879 -46.59938 4988 ft 146 kts 259°
2026-05-06 11:33 -21.88698 -46.60982 4942 ft 141 kts 307°
2026-05-06 11:34 -21.87991 -46.61637 4984 ft 132 kts 338°
2026-05-06 11:34 -21.87141 -46.61990 4936 ft 129 kts 357°
2026-05-06 11:34 -21.86308 -46.61828 4836 ft 120 kts 37°
2026-05-06 11:34 -21.85739 -46.61185 4798 ft 121 kts 59°
2026-05-06 11:35 -21.85386 -46.60362 4654 ft 122 kts 70°
2026-05-06 11:35 -21.85108 -46.59508 4510 ft 121 kts 70°
2026-05-06 11:35 -21.84827 -46.58644 4312 ft 123 kts 70°
2026-05-06 11:35 -21.84534 -46.57784 4176 ft 122 kts 70°
2026-05-06 11:36 -21.84273 -46.57019 4140 ft 79 kts 70°
2026-05-06 11:36 -21.84167 -46.56716 4111 ft 30 kts 69°
2026-05-06 11:36 -21.84099 -46.56518 4115 ft 27 kts 70°
2026-05-06 11:36 -21.84040 -46.56350 4117 ft 16 kts 69°
2026-05-06 11:37 -21.84000 -46.56289 4115 ft 9 kts
2026-05-06 11:37 -21.83952 -46.56330 4115 ft 11 kts 285°
2026-05-06 11:37 -21.83936 -46.56421 4113 ft 14 kts 280°
2026-05-06 11:37 -21.83905 -46.56512 4114 ft 13 kts 319°
2026-05-06 11:38 -21.83899 -46.56558 4116 ft 0 kts 192°